Location: Ao Por, Phuket, Thailand
(8.0591°N, 98.4362°E)
Time: 16:17:30
(UTC+07:00)

N. Korean satellite - Pass Details

Date: 29 September 2021
Orbit: 450 x 495 km, 97.3° (Epoch: 15 October)

Event Time Altitude Azimuth Distance (km) Brightness Sun altitude
Rises 05:39:09 0° 1° (N) 2,548 10.2 -9.6°
Reaches altitude 10° 05:41:16 10° 355° (N) 1,674 9.2 -9.1°
Maximum altitude 05:44:43 44° 282° (WNW) 685 6.9 -8.2°
Drops below altitude 10° 05:48:12 10° 208° (SSW) 1,689 9.0 -7.4°
Sets 05:50:20 0° 202° (SSW) 2,573 10.0 -6.9°
